Regional Weather Roundup
Issued by NWS Raleigh/Durham, NC

Home | Current Version | Previous Version | Text Only | Print | Product List | Glossary On
Versions: 1 2 3 4 5 6 7 8 9 10 11 12 13 14 15 16 17 18 19 20 21 22 23 24 25 26 27 28 29 30 31 32 33 34 35 36 37 38 39 40 41 42 43 44 45 46 47 48 49 50
234
ASUS42 KRAH 272010
RWRRAH
NORTH CAROLINA WEATHER ROUNDUP
NATIONAL WEATHER SERVICE RALEIGH NC
400 PM EDT MON MAR 27 2017

NOTE: "FAIR" INDICATES FEW OR NO CLOUDS BELOW 12,000 FEET WITH NO
SIGNIFICANT WEATHER AND/OR OBSTRUCTIONS TO VISIBILITY.

NCZ001-053-055-056-065-067-272100-
WESTERN NORTH CAROLINA

CITY           SKY/WX    TMP DP  RH WIND       PRES   REMARKS
ASHEVILLE      CLOUDY    70  52  52 S10       30.04F
JEFFERSON      PTSUNNY   63  56  77 SE5       30.04F
MORGANTON      CLOUDY    78  53  42 S8        30.02F
HICKORY        CLOUDY    74  57  55 S12G20    29.99F
RUTHERFORDTON  PTSUNNY   77  54  45 S12G17    29.99F
MOUNT AIRY     CLOUDY    73  61  64 SW7       30.02F
BOONE          MOSUNNY   64  57  79 SE5       30.06F
$$

NCZ021-022-025-041-071-084-088-272100-
CENTRAL NORTH CAROLINA

CITY           SKY/WX    TMP DP  RH WIND       PRES   REMARKS
CHARLOTTE      PTSUNNY   77  57  50 W6G16     30.01F
GREENSBORO     CLOUDY    75  60  59 S14       29.99F
WINSTON-SALEM  CLOUDY    75  53  46 S6        30.00F
RALEIGH-DURHAM PTSUNNY   78  58  49 SW12      30.01F
FORT BRAGG     MOSUNNY   78  58  50 S9        30.01F
FAYETTEVILLE   PTSUNNY   79  58  48 S8        30.02F
BURLINGTON     SUNNY     76  58  53 SW8       30.00F
LAURINBURG     PTSUNNY   76  61  59 S6        30.03F
$$

NCZ011-015-027-028-043-044-047-080-103-272100-
NORTHEASTERN NORTH CAROLINA

CITY           SKY/WX    TMP DP  RH WIND       PRES   REMARKS
ROCKY MT-WILSO MOSUNNY   78  57  48 SW17G23   30.02F
GREENVILLE     PTSUNNY   79  55  44 S9G18     30.04F
WASHINGTON     CLOUDY    76  55  47 SW12      30.04F
ELIZABETH CITY CLOUDY    77  55  46 S9G18     30.04F
MANTEO         PTSUNNY   68  55  63 S15G23    30.05F
CAPE HATTERAS  SUNNY     75  58  55 SW7       30.08F
$$

NCZ078-087-090-091-093-098-101-272100-
SOUTHEASTERN NORTH CAROLINA

CITY           SKY/WX    TMP DP  RH WIND       PRES   REMARKS
LUMBERTON      PTSUNNY   77  58  51 VRB5      30.02F
GOLDSBORO      PTSUNNY   78  56  45 SW8G17    30.02F
KINSTON        PTSUNNY   77  54  44 S12       30.04F
KENANSVILLE    CLOUDY    77  55  47 S6        30.04F
NEW BERN       MOSUNNY   79  52  38 S9G17     30.06F
CHERRY POINT   PTSUNNY   74  51  44 S14       30.07F
BEAUFORT       SUNNY     74  56  53 S9        30.08F
JACKSONVILLE   SUNNY     76  55  48 S9G18     30.05F
WILMINGTON     CLOUDY    76  55  48 S10G18    30.06F
$$





USA.gov is the U.S. government's official web portal to all federal, state and local government web resources and services.